Home > Weather > Sevilla > Past weeks

Flag for Spain Past Weather in Sevilla, Spain — Yesterday and Last 2 Weeks

Now
75 °F

Sunny.


Feels Like: 77 °F
Forecast: 69 / 104 °F
Wind: 7 mph from Northeast

Location: Sevilla / San Pablo

Current Time: Jul 24, 2016 at 8:56:55 AM

Latest Report: Jul 24, 2016 at 8:30 AM


Visibility: 10 mi

Pressure: 29.98 "Hg

Humidity: 74%

Dew Point: 66 °F

Location of SevillaLocation

Past Weather in Sevilla — Graph

°F

Sevilla Temperature Yesterday

Maximum temperature yesterday: 99 °F (at 6:00 PM)
Minimum temperature yesterday: 66 °F (at 7:00 AM)
Average temperature yesterday: 82 °F

High & Low Weather Summary for the Past Weeks

 TemperatureHumidityPressure
High106 °F (Jul 19, 5:30 PM)88% (Jul 21, 5:00 AM)30.07 "Hg (Jul 21, 5:00 AM)
Low66 °F (Jul 23, 7:00 AM)9% (Jul 13, 2:30 PM)29.83 "Hg (Jul 11, 8:00 PM)
Average85 °F39%29.95 "Hg
* Reported Jul 9 7:00 AM — Jul 24 7:30 AM, Sevilla, Weather by CustomWeather, © 2016

Note: Actual official high and low records may vary slightly from our data, if they occured in-between our weather recording intervals... More about our weather records

Advertising

Sevilla Weather History for the Previous 24 Hours

Scroll right to see more
 ConditionsComfort  
Time TempWeatherWind HumidityBarometerVisibility
7:30 AM
Sun, Jul 24
73 °FClear.3 mph78%29.98 "Hg10 mi
7:00 AM73 °FClear.2 mph78%29.98 "Hg10 mi
6:30 AM73 °FClear.2 mph78%29.98 "Hg10 mi
6:00 AM73 °FClear.1 mph78%29.98 "Hg10 mi
5:30 AM73 °FClear.2 mph78%29.98 "Hg10 mi
5:00 AM75 °FClear.2 mph74%29.98 "Hg10 mi
4:30 AM75 °FClear.1 mph74%29.98 "Hg10 mi
4:00 AM75 °FPassing clouds.3 mph74%29.98 "HgN/A
3:30 AM77 °FPassing clouds.9 mph69%29.95 "HgN/A
3:00 AM77 °FWarm.9 mph69%29.98 "HgN/A
2:30 AM77 °FWarm.10 mph69%29.98 "HgN/A
2:00 AM77 °FWarm.10 mph69%29.98 "HgN/A
1:30 AM77 °FWarm.12 mph69%29.98 "HgN/A
1:00 AM79 °FPassing clouds.7 mph61%29.98 "HgN/A
12:30 AM81 °FClear.10 mph58%29.98 "Hg10 mi
12:00 AM82 °FClear.10 mph51%29.95 "Hg10 mi
11:30 PM
Sat, Jul 23
82 °FClear.14 mph51%29.95 "Hg10 mi
11:00 PM84 °FPassing clouds.9 mph51%29.95 "HgN/A
10:30 PM88 °FSunny.7 mph38%29.92 "Hg10 mi
10:00 PM90 °FSunny.10 mph33%29.89 "Hg10 mi
9:30 PM91 °FSunny.14 mph34%29.89 "Hg10 mi
9:00 PM93 °FSunny.9 mph32%29.89 "Hg10 mi
8:30 PM93 °FSunny.12 mph32%29.89 "Hg10 mi
8:00 PM99 °FPassing clouds.5 mph19%29.89 "HgN/A
7:30 PM99 °FPassing clouds.3 mph19%29.89 "HgN/A
7:00 PM99 °FSunny.1 mph18%29.89 "Hg10 mi
6:30 PM99 °FSunny.1 mph19%29.89 "Hg10 mi
6:00 PM99 °FSunny.2 mph18%29.92 "Hg10 mi
5:30 PM97 °FSunny.1 mph19%29.92 "Hg10 mi
5:00 PM97 °FSunny.3 mph18%29.92 "Hg10 mi
4:30 PM97 °FSunny.2 mph14%29.95 "Hg10 mi
4:00 PM93 °FSunny.3 mph26%29.95 "Hg10 mi
3:30 PM93 °FSunny.3 mph32%29.95 "Hg10 mi
3:00 PM91 °FPassing clouds.3 mph34%29.95 "HgN/A
2:30 PM90 °FSunny.2 mph36%29.98 "Hg10 mi
2:00 PM88 °FSunny.2 mph43%29.98 "Hg10 mi
1:30 PM88 °FSunny.1 mph43%30.01 "Hg10 mi
1:00 PM84 °FSunny.2 mph48%30.01 "Hg10 mi
12:30 PM82 °FSunny.2 mph55%30.01 "Hg10 mi
12:00 PM82 °FSunny.2 mph55%30.01 "Hg10 mi
11:30 AM79 °FSunny.2 mph61%30.01 "Hg10 mi
11:00 AM79 °FSunny.2 mph65%30.01 "Hg10 mi
10:30 AM77 °FSunny.1 mph65%30.01 "Hg10 mi
10:00 AM75 °FSunny.1 mph69%29.98 "Hg10 mi
9:30 AM73 °FPassing clouds.3 mph74%29.98 "HgN/A
9:00 AM73 °FSunny.1 mph74%29.98 "Hg10 mi
8:30 AM72 °FSunny.1 mph73%29.98 "Hg10 mi
8:00 AM68 °FClear.1 mph78%29.98 "Hg10 mi
Weather by CustomWeather, © 2016

See weather overviewHow to use our weather pages